Find Kosmos-2194

NORAD ID: 21983 Int'l Des: 1992-030 Owner: VVSR Country: RU operational
LEOCIRCULAR

Live-Position

3D-Globus wird geladen...

Über Kosmos-2194

Beschreibung wird geladen...

Nächste Überflüge

Passes for default location (London). Set your location on the main map for personalized predictions.

Höhenverlauf

Loading altitude history...

Zweizeiliger Elementsatz

1 21983U 92030H 26131.82146784 -.00000021 00000-0 -31331-4 0 9990
2 21983 74.0058 22.6651 0016954 327.6833 98.5399 12.48475248546775
Epoch: 11. Mai 2026 • Age: 7 hours

Aktueller Status

Höhe 1462.2 km
Geschwindigkeit 7.14 km/s
Subsatellitenpunkt -4.91°S, 105.56°E
Startdatum 3. Juni 1992
Alter 33.9 years
Typ other

Technische Details

Klassifizierung Payload
Masse 60.00 kg
Trockenmasse 60.00 kg
Gesamtmasse 60.00 kg
Länge 0.80 m
Durchmesser 0.80 m
Spannweite 0.80 m
Form Poly
Hersteller NPOPM
Bus-Typ Strela-1 11F625
Phasenstatus In Orbit
Besitzer/Staat VVSR/RU

Most Searched